Wager Bay, Nunavut

1:49 AM MDT on June 27, 2017 (GMT -0600)
Wager Bay

Weather History for CXWB - October, 2011

Change the Weather History Date:

Saturday, October 15, 2011

  Actual Average Record
Temperature  
Mean Temperature 22 °F -  
Max Temperature 30 °F - - ()
Min Temperature 16 °F - - ()
Degree Days  
Heating Degree Days 42    
Moisture  
Dew Point 2 °F    
Average Humidity 39    
Maximum Humidity 91    
Minimum Humidity 7    
Precipitation  
Precipitation 0.04 in - - ()
Sea Level Pressure  
Sea Level Pressure 29.82 in    
Wind  
Wind Speed 15 mph ()    
Max Wind Speed 26 mph    
Max Gust Speed 33 mph    
T = Trace of Precipitation, MM = Missing Value Source: Averaged Metar Reports

Daily Weather History Graph

Daily Weather History Graph

Search for Another Location

Airport or City:

Trip Planner

Search our weather history database for the weather conditions in past years. The results will help you decide how hot, cold, wet, or windy it might be!

Date:

Astronomy

Oct. 15, 2011 Rise Set
Actual Time 7:03 AM MDT 4:41 PM MDT
Civil Twilight 6:10 AM MDT 5:34 PM MDT
Nautical Twilight 5:11 AM MDT 6:33 PM MDT
Astronomical Twilight 4:10 AM MDT 7:33 PM MDT
Moon 4:21 PM MDT (10/15) 12:43 PM MDT (10/15)
Length of Visible Light 11h 23m
Length of Day
9h 38m
Waning Gibbous, 88% of the Moon is Illuminated
Oct 15
Waning Gibbous
Oct 19
Last Quarter
Oct 26
New
Nov 2
First Quarter
Nov 10
Full

Hourly Weather History & Observations

Time (MDT) Temp. Windchill Dew Point Humidity Pressure Visibility Wind Dir Wind Speed Gust Speed Precip Events Conditions
12:00 AM 24 °F - -10 °F 10% 30.00 in - East 8.1 mph - -  
12:00 AM 23.5 °F 14.5 °F -10.1 °F 22% 30.00 in - East 8.1 mph - N/A   Unknown
1:00 AM 24.3 °F 14.6 °F -9.8 °F 22% 29.99 in - East 9.2 mph - N/A   Unknown
2:00 AM 24.4 °F 12.4 °F -10.1 °F 22% 29.97 in - ENE 13.8 mph - N/A   Unknown
3:00 AM 25.2 °F 12.4 °F -8.0 °F 23% 29.95 in - ENE 16.1 mph - N/A   Unknown
4:00 AM 25.7 °F 13.5 °F -6.7 °F 24% 29.94 in - ENE 15.0 mph - N/A   Unknown
5:00 AM 25.7 °F 12.7 °F -4.7 °F 27% 29.92 in - ENE 17.3 mph - N/A   Unknown
6:00 AM 26 °F - -9 °F 10% 29.92 in - East 13.8 mph - -  
7:00 AM 26.4 °F 15.0 °F -9.2 °F 21% 29.89 in - ENE 13.8 mph - N/A   Unknown
8:00 AM 27.3 °F 14.4 °F -7.8 °F 22% 29.87 in - ENE 18.4 mph - N/A   Unknown
9:00 AM 28.2 °F 14.8 °F -8.3 °F 20% 29.85 in - ENE 20.7 mph - N/A   Unknown
10:00 AM 28.6 °F 15.6 °F -10.8 °F 18% 29.84 in - ENE 19.6 mph - N/A   Unknown
11:00 AM 29.7 °F 17.1 °F -8.9 °F 19% 29.83 in - ENE 19.6 mph - N/A   Unknown
12:00 PM 29 °F - -10 °F 7% 29.81 in - ENE 20.7 mph - -  
12:00 PM 29.3 °F 16.2 °F -10.1 °F 18% 29.81 in - ENE 20.7 mph 27.6 mph N/A   Unknown
1:00 PM 28.6 °F 15.0 °F -9.6 °F 19% 29.79 in - ENE 21.9 mph - N/A   Unknown
2:00 PM 28.8 °F 15.5 °F -9.4 °F 19% 29.78 in - ENE 20.7 mph 27.6 mph N/A   Unknown
3:00 PM 28.0 °F 15.7 °F -0.0 °F 30% 29.76 in - ENE 17.3 mph - N/A   Unknown
4:00 PM 27.7 °F 14.1 °F 12.0 °F 52% 29.74 in - ENE 20.7 mph - N/A   Unknown
5:00 PM 27.9 °F 13.4 °F 18.3 °F 67% 29.72 in - ENE 24.2 mph - 0.02 in   Unknown
6:00 PM 28 °F - 22 °F 69% 29.70 in - ENE 25.3 mph - -  
6:00 PM 28.0 °F 13.3 °F 21.7 °F 77% 29.70 in - ENE 25.3 mph 32.2 mph N/A   Unknown
7:00 PM 28.4 °F 13.8 °F 24.1 °F 84% 29.68 in - ENE 25.3 mph 32.2 mph N/A   Unknown
8:00 PM 28.6 °F 13.8 °F 24.8 °F 86% 29.67 in - ENE 26.5 mph 33.4 mph 0.01 in   Unknown
9:00 PM 28.9 °F 15.1 °F 26.6 °F 91% 29.67 in - ENE 23.0 mph - 0.02 in   Unknown
10:00 PM 29.3 °F 15.0 °F 26.2 °F 88% 29.65 in - ENE 25.3 mph 32.2 mph N/A   Unknown
11:00 PM 30.0 °F 16.3 °F 24.1 °F 79% 29.63 in - NNE 24.2 mph 31.1 mph 0.02 in   Unknown